Tracking 22441 objects as of 1-Mar-2021
HD Live streaming from Space Station
objects crossing your sky now

ORCA-1

Track ORCA-1 now!
10-day predictions


NORAD ID: 44418
Int'l Code: 2019-022H
Perigee: 466.7 km
Apogee: 482.9 km
Inclination: 51.6 °
Period: 94.0 minutes
Semi major axis: 6845 km
RCS: Unknown
Launch date: April 17, 2019
Source: Egypt (EGYP)
Launch site: WALLOPS ISLAND (WLPIS)
aabbcc
Your satellite tracking list
Your tracking list is empty




NASA's NSSDC Master Catalog

Two Line Element Set (TLE):
1 44418U 19022H   21059.86905307  .00001898  00000-0  70758-4 0  9997
2 44418  51.6413 237.1709 0011778 152.3344 207.8266 15.32729721 87586
Source of the keplerian elements: AFSPC